This demonstration page uses our WeatherBlox Daily Observations layout. Learn more.

Left ArrowRight Arrow

39.08367, -84.50855

Hourly Observations for January 13, 2021

Temp ( °F °C ) Dew Point ( °F °C ) Humidity (%) Winds ( mph kmh ) Pressure ( in mb ) Visibility ( mi km ) Precip ( " mm )
12:53 am 00:53 Clear 28 -2.2 22 -5.6 78 78 Calm 30.17 1022 8 12.87472 0 0
1:53 am 01:53 Clear 26 -3.3 22 -5.6 84 84 SW 3 6 30.16 1021 8 12.87472 0 0
2:53 am 02:53 Clear 26 -3.3 22 -5.6 84 84 Calm 30.16 1022 8 12.87472 0 0
3:53 am 03:53 Clear 27 -2.8 23 -5 85 85 WSW 3 6 30.14 1021 7 11.26538 0 0
4:53 am 04:53 Clear 27 -2.8 23 -5 85 85 Calm 30.14 1021 8 12.87472 0 0
5:53 am 05:53 Clear with Mist and Fog 22 -5.6 20 -6.7 92 92 Calm 30.14 1021 6 9.65604 0 0
6:53 am 06:53 Clear 25 -3.9 22 -5.6 88 88 SW 5 7 30.13 1020 7 11.26538 0 0
7:53 am 07:53 Clear with Mist and Fog 23 -5 21 -6.1 92 92 SW 6 9 30.13 1020 6 9.65604 0 0
8:53 am 08:53 Sunny with Mist and Fog 26 -3.3 24 -4.4 92 92 SW 5 7 30.12 1020 5 8.0467 0 0
9:53 am 09:53 Sunny 32 0 28 -2.2 85 85 S 5 7 30.1 1019 7 11.26538 0 0
10:53 am 10:53 Sunny 36 2.2 29 -1.7 76 76 S 8 13 30.08 1019 8 12.87472 0 0
11:53 am 11:53 Sunny 40 4.4 29 -1.7 65 65 S 8 13 30.06 1018 10 16.0934 0 0
12:53 pm 12:53 Sunny 44 6.7 29 -1.7 55 55 S 8 13 30 1016 10 16.0934 0 0
1:53 pm 13:53 Sunny 46 7.8 30 -1.1 54 54 S 9 15 29.96 1014 10 16.0934 0 0
2:53 pm 14:53 Sunny 49 9.4 29 -1.7 46 46 SSW 15 24 29.94 1014 10 16.0934 0 0
3:53 pm 15:53 Sunny 47 8.3 29 -1.7 50 50 SSW 10 17 29.92 1013 10 16.0934 0 0
4:53 pm 16:53 Sunny 45 7.2 28 -2.2 52 52 SW 8 13 29.92 1013 10 16.0934 0 0
5:53 pm 17:53 Clear 40 4.4 27 -2.8 60 60 SSW 8 13 29.91 1013 10 16.0934 0 0
6:53 pm 18:53 Clear 40 4.4 28 -2.2 63 63 SSW 8 13 29.91 1013 10 16.0934 0 0
7:53 pm 19:53 Clear 39 3.9 28 -2.2 65 65 SSW 8 13 29.91 1013 10 16.0934 0 0
8:53 pm 20:53 Clear 39 3.9 28 -2.2 65 65 SSW 5 7 29.91 1013 10 16.0934 0 0
9:53 pm 21:53 Clear 35 1.7 28 -2.2 76 76 SSW 6 9 29.9 1013 10 16.0934 0 0
10:53 pm 22:53 Clear 36 2.2 27 -2.8 70 70 SSW 9 15 29.88 1012 10 16.0934 0 0
11:53 pm 23:53 Clear 36 2.2 27 -2.8 70 70 S 5 7 29.88 1012 10 16.0934 0 0

Powered by AerisWeather